Location: Unspecified
(64.9000°N, 0.0000°E)
Time: 02:17:00
(UTC+00:00)

Transit 2A Rocket - Pass Details

Date: 25 June 2019
Orbit: 588 x 915 km, 66.7° (Epoch: 16 July)

Event Time Altitude Azimuth Distance (km) Brightness Sun altitude
Rises 11:49:24 0° 239° (WSW) 3,528 8.7 48.4°
Reaches altitude 10° 11:51:58 10° 239° (WSW) 2,566 8.1 48.5°
Maximum altitude 11:57:57 82° 153° (SSE) 870 6.4 48.5°
Drops below altitude 10° 12:03:32 10° 67° (ENE) 2,392 7.5 48.5°
Sets 12:05:51 0° 66° (ENE) 3,274 8.1 48.5°
